Time,TemperatureF,DewpointF,PressureIn,WindDirection,WindDirectionDegrees,WindSpeedMPH,WindSpeedGustMPH,Humidity,HourlyPrecipIn,Conditions,Clouds,dailyrainin,SolarRadiationWatts/m^2,SoftwareType,DateUTC
2013-07-31 00:00:00,75.6,73.4,30.03,SE,144,0.0,0.0,93,0.00,,,-99.99,0.0,meteobridge,2013-07-31 05:00:00,
2013-07-31 00:05:00,75.6,73.8,30.03,SE,144,0.0,0.0,94,0.00,,,0.00,0.0,meteobridge,2013-07-31 05:05:00,
2013-07-31 00:10:00,75.9,74.1,30.03,SE,144,2.0,2.0,94,0.00,,,0.00,0.0,meteobridge,2013-07-31 05:10:00,
2013-07-31 00:15:00,75.7,73.9,30.03,SE,144,2.0,2.9,94,0.00,,,0.00,0.0,meteobridge,2013-07-31 05:15:00,
2013-07-31 00:20:00,75.6,73.8,30.03,SE,144,0.9,2.0,94,0.00,,,0.00,0.0,meteobridge,2013-07-31 05:20:00,
2013-07-31 00:26:00,75.7,73.9,30.03,SE,144,2.0,2.0,94,0.00,,,0.00,0.0,meteobridge,2013-07-31 05:26:00,
2013-07-31 00:31:00,75.7,73.9,30.03,SE,144,2.0,2.9,94,0.00,,,0.00,0.0,meteobridge,2013-07-31 05:31:00,
2013-07-31 00:36:00,75.6,73.4,30.03,SE,144,2.0,2.9,93,0.00,,,0.00,0.0,meteobridge,2013-07-31 05:36:00,
2013-07-31 00:41:00,75.4,73.6,30.03,SE,144,2.0,2.9,94,0.00,,,0.00,0.0,meteobridge,2013-07-31 05:41:00,
2013-07-31 00:46:00,75.0,72.9,30.02,SE,144,2.0,2.0,93,0.00,,,0.00,0.0,meteobridge,2013-07-31 05:46:00,
2013-07-31 00:51:00,75.0,73.2,30.02,SE,144,0.0,0.0,94,0.00,,,0.00,0.0,meteobridge,2013-07-31 05:51:00,
2013-07-31 00:56:00,75.0,73.2,30.02,SE,145,2.0,2.0,94,0.00,,,0.00,0.0,meteobridge,2013-07-31 05:56:00,
2013-07-31 01:01:00,75.0,73.2,30.02,SSE,149,2.0,2.0,94,0.00,,,0.00,0.0,meteobridge,2013-07-31 06:01:00,
2013-07-31 01:06:00,75.0,73.2,30.02,SSE,158,0.0,2.0,94,0.00,,,0.00,0.0,meteobridge,2013-07-31 06:06:00,
2013-07-31 01:11:00,75.0,73.2,30.02,SSE,158,2.0,2.9,94,0.00,,,0.00,0.0,meteobridge,2013-07-31 06:11:00,
2013-07-31 01:16:00,74.8,73.0,30.01,SSE,158,0.9,2.0,94,0.00,,,0.00,0.0,meteobridge,2013-07-31 06:16:00,
2013-07-31 01:21:00,75.0,73.2,30.01,SSE,159,2.0,2.9,94,0.00,,,0.00,0.0,meteobridge,2013-07-31 06:21:00,
2013-07-31 01:26:00,75.2,73.4,30.01,SSE,155,0.9,2.9,94,0.00,,,0.00,0.0,meteobridge,2013-07-31 06:26:00,
2013-07-31 01:31:00,75.4,73.6,30.01,SSE,157,0.9,2.9,94,0.00,,,0.00,0.0,meteobridge,2013-07-31 06:31:00,
2013-07-31 01:37:00,75.4,73.6,30.01,SSE,157,2.0,2.9,94,0.00,,,0.00,0.0,meteobridge,2013-07-31 06:37:00,
2013-07-31 01:42:00,75.4,73.6,30.01,SSE,159,2.9,2.9,94,0.00,,,0.00,0.0,meteobridge,2013-07-31 06:42:00,
2013-07-31 01:47:00,75.4,73.6,30.01,SSE,162,2.9,4.0,94,0.00,,,0.00,0.0,meteobridge,2013-07-31 06:47:00,
2013-07-31 01:52:00,75.6,73.8,30.01,SSE,163,2.9,2.9,94,0.00,,,0.00,0.0,meteobridge,2013-07-31 06:52:00,
2013-07-31 01:57:00,75.7,73.9,30.01,SSE,159,2.9,4.0,94,0.00,,,0.00,0.0,meteobridge,2013-07-31 06:57:00,
2013-07-31 02:02:00,75.7,73.9,30.01,SSE,162,2.0,4.0,94,0.00,,,0.00,0.0,meteobridge,2013-07-31 07:02:00,
2013-07-31 02:07:00,75.7,73.9,30.01,SSE,150,2.9,4.0,94,0.00,,,0.00,0.0,meteobridge,2013-07-31 07:07:00,
2013-07-31 02:12:00,75.7,73.9,30.01,SSE,157,2.9,4.0,94,0.00,,,0.00,0.0,meteobridge,2013-07-31 07:12:00,
2013-07-31 02:17:00,75.6,73.8,30.01,SSE,159,2.9,4.0,94,0.00,,,0.00,0.0,meteobridge,2013-07-31 07:17:00,
2013-07-31 02:22:00,75.6,73.8,30.01,SSE,151,2.9,2.9,94,0.00,,,0.00,0.0,meteobridge,2013-07-31 07:22:00,
2013-07-31 02:27:00,75.6,73.8,30.01,SSE,151,0.9,2.9,94,0.00,,,0.00,0.0,meteobridge,2013-07-31 07:27:00,
2013-07-31 02:32:00,75.4,73.6,30.01,SSE,151,0.9,2.0,94,0.00,,,0.00,0.0,meteobridge,2013-07-31 07:32:00,
2013-07-31 02:37:00,75.4,73.6,30.01,SSE,151,0.0,2.0,94,0.00,,,0.00,0.0,meteobridge,2013-07-31 07:37:00,
2013-07-31 02:42:00,75.0,73.2,30.01,SSE,151,0.0,0.0,94,0.00,,,0.00,0.0,meteobridge,2013-07-31 07:42:00,
2013-07-31 02:47:00,75.0,73.2,30.01,SSE,151,0.0,0.0,94,0.00,,,0.00,0.0,meteobridge,2013-07-31 07:47:00,
2013-07-31 02:52:00,75.0,73.2,30.01,SSE,151,0.0,0.0,94,0.00,,,0.00,0.0,meteobridge,2013-07-31 07:52:00,
2013-07-31 02:58:00,75.0,73.4,30.01,SSE,151,0.0,0.0,95,0.00,,,0.00,0.0,meteobridge,2013-07-31 07:58:00,
2013-07-31 03:04:00,74.8,73.0,30.01,SSE,151,0.0,0.0,94,0.00,,,0.00,0.0,meteobridge,2013-07-31 08:04:00,
2013-07-31 03:09:00,74.7,72.9,30.01,SSE,151,0.0,0.0,94,0.00,,,0.00,0.0,meteobridge,2013-07-31 08:09:00,
2013-07-31 03:14:00,74.7,72.9,30.01,SSE,151,0.0,0.0,94,0.00,,,0.00,0.0,meteobridge,2013-07-31 08:14:00,
2013-07-31 03:20:00,74.7,73.2,30.01,SSE,151,0.0,0.0,95,0.00,,,0.00,0.0,meteobridge,2013-07-31 08:20:00,
2013-07-31 03:25:00,74.7,72.9,30.01,SSE,151,0.0,0.0,94,0.00,,,0.00,0.0,meteobridge,2013-07-31 08:25:00,
2013-07-31 03:30:00,74.7,72.9,30.01,SSE,150,0.0,0.0,94,0.00,,,0.00,0.0,meteobridge,2013-07-31 08:30:00,
2013-07-31 03:35:00,74.7,72.9,30.01,SSE,150,0.0,0.0,94,0.00,,,0.00,0.0,meteobridge,2013-07-31 08:35:00,
2013-07-31 03:40:00,74.5,73.0,30.01,SSE,150,2.0,2.9,95,0.00,,,0.00,0.0,meteobridge,2013-07-31 08:40:00,
2013-07-31 03:45:00,74.1,72.7,30.00,SSE,150,2.0,2.9,95,0.00,,,0.00,0.0,meteobridge,2013-07-31 08:45:00,
2013-07-31 03:50:00,74.3,72.9,30.00,SSE,153,2.0,2.9,95,0.00,,,0.00,0.0,meteobridge,2013-07-31 08:50:00,
2013-07-31 03:55:00,74.7,73.2,30.00,SSE,159,2.0,2.9,95,0.00,,,0.00,0.0,meteobridge,2013-07-31 08:55:00,
2013-07-31 04:00:00,74.7,73.2,30.00,SSE,160,2.0,4.0,95,0.00,,,0.00,0.0,meteobridge,2013-07-31 09:00:00,
2013-07-31 04:05:00,74.8,73.2,30.00,SSE,163,0.9,2.9,95,0.00,,,0.00,0.0,meteobridge,2013-07-31 09:05:00,
2013-07-31 04:10:00,74.8,73.2,30.00,SSE,162,0.9,2.0,95,0.00,,,0.00,0.0,meteobridge,2013-07-31 09:10:00,
2013-07-31 04:15:00,74.8,73.2,30.00,SSE,162,0.0,0.0,95,0.00,,,0.00,0.0,meteobridge,2013-07-31 09:15:00,
2013-07-31 04:20:00,74.7,73.2,30.00,SSE,162,0.0,0.0,95,0.00,,,0.00,0.0,meteobridge,2013-07-31 09:20:00,
2013-07-31 04:26:00,74.1,72.7,30.00,SSE,162,0.0,0.0,95,0.00,,,0.00,0.0,meteobridge,2013-07-31 09:26:00,
2013-07-31 04:31:00,73.9,72.5,30.00,SSE,162,0.0,0.0,95,0.00,,,0.00,0.0,meteobridge,2013-07-31 09:31:00,
2013-07-31 04:36:00,73.9,72.5,30.00,SSE,162,0.0,0.0,95,0.00,,,0.00,0.0,meteobridge,2013-07-31 09:36:00,
2013-07-31 04:42:00,74.1,72.7,30.00,SSE,162,0.0,0.0,95,0.00,,,0.00,0.0,meteobridge,2013-07-31 09:42:00,
2013-07-31 04:47:00,73.9,72.5,30.01,SSE,162,0.0,0.0,95,0.00,,,0.00,0.0,meteobridge,2013-07-31 09:47:00,
2013-07-31 04:52:00,74.1,72.9,30.01,SSE,162,0.0,0.0,96,0.00,,,0.00,0.0,meteobridge,2013-07-31 09:52:00,
2013-07-31 04:57:00,73.9,72.5,30.01,SSE,162,0.0,0.0,95,0.00,,,0.00,0.0,meteobridge,2013-07-31 09:57:00,
2013-07-31 05:02:00,73.8,72.3,30.01,SSE,162,0.0,0.0,95,0.00,,,0.00,0.0,meteobridge,2013-07-31 10:02:00,
2013-07-31 05:07:00,74.1,72.9,30.01,SSE,165,0.0,0.0,96,0.00,,,0.00,0.0,meteobridge,2013-07-31 10:07:00,
2013-07-31 05:12:00,74.5,73.2,30.01,South,171,0.0,2.0,96,0.00,,,0.00,0.0,meteobridge,2013-07-31 10:12:00,
2013-07-31 05:17:00,74.7,73.4,30.00,South,171,0.9,2.9,96,0.00,,,0.00,0.0,meteobridge,2013-07-31 10:17:00,
2013-07-31 05:22:00,75.0,73.8,30.00,South,171,0.0,2.0,96,0.00,,,0.00,0.0,meteobridge,2013-07-31 10:22:00,
2013-07-31 05:27:00,75.2,73.9,30.00,South,171,2.0,2.0,96,0.00,,,0.00,0.0,meteobridge,2013-07-31 10:27:00,
2013-07-31 05:33:00,75.4,74.1,30.00,South,171,0.0,2.0,96,0.00,,,0.00,0.0,meteobridge,2013-07-31 10:33:00,
2013-07-31 05:38:00,75.0,73.8,30.00,South,169,0.0,2.0,96,0.00,,,0.00,0.0,meteobridge,2013-07-31 10:38:00,
2013-07-31 05:43:00,74.8,73.6,30.00,South,169,0.0,0.9,96,0.00,,,0.00,0.0,meteobridge,2013-07-31 10:43:00,
2013-07-31 05:48:00,74.8,73.6,30.00,South,169,0.0,0.0,96,0.00,,,0.00,0.0,meteobridge,2013-07-31 10:48:00,
2013-07-31 05:53:00,74.8,73.6,30.00,South,169,0.0,0.0,96,0.00,,,0.00,0.0,meteobridge,2013-07-31 10:53:00,
2013-07-31 05:58:00,74.8,73.6,30.00,South,169,0.0,0.0,96,0.00,,,0.00,0.0,meteobridge,2013-07-31 10:58:00,
2013-07-31 06:03:00,74.8,73.6,30.01,South,169,0.0,0.0,96,0.00,,,0.00,0.0,meteobridge,2013-07-31 11:03:00,
2013-07-31 06:08:00,74.7,73.4,30.01,South,169,0.0,0.0,96,0.00,,,0.00,0.0,meteobridge,2013-07-31 11:08:00,
2013-07-31 06:13:00,74.5,73.2,30.01,South,169,0.0,0.0,96,0.00,,,0.00,0.0,meteobridge,2013-07-31 11:13:00,
2013-07-31 06:19:00,74.5,73.2,30.01,South,169,0.0,0.0,96,0.00,,,0.00,0.0,meteobridge,2013-07-31 11:19:00,
2013-07-31 06:24:00,74.8,73.6,30.01,South,169,0.0,0.0,96,0.00,,,0.00,0.0,meteobridge,2013-07-31 11:24:00,
2013-07-31 06:29:00,75.2,73.9,30.01,South,169,0.0,0.0,96,0.00,,,0.00,0.0,meteobridge,2013-07-31 11:29:00,
2013-07-31 06:34:00,75.0,73.8,30.01,South,169,0.0,0.0,96,0.00,,,0.00,0.0,meteobridge,2013-07-31 11:34:00,
2013-07-31 06:40:00,74.8,73.6,30.01,South,169,0.0,0.0,96,0.00,,,0.00,0.0,meteobridge,2013-07-31 11:40:00,
2013-07-31 06:45:00,74.7,73.4,30.02,South,169,0.0,0.0,96,0.00,,,0.00,0.0,meteobridge,2013-07-31 11:45:00,
2013-07-31 06:50:00,74.7,73.4,30.02,South,169,0.0,0.0,96,0.00,,,0.00,5.0,meteobridge,2013-07-31 11:50:00,
2013-07-31 06:55:00,74.8,73.6,30.02,South,169,0.0,0.0,96,0.00,,,0.00,11.0,meteobridge,2013-07-31 11:55:00,
2013-07-31 07:01:00,74.7,73.4,30.03,South,169,0.0,0.0,96,0.00,,,0.00,14.0,meteobridge,2013-07-31 12:01:00,
2013-07-31 07:06:00,74.1,72.9,30.03,South,169,0.0,0.0,96,0.00,,,0.00,18.0,meteobridge,2013-07-31 12:06:00,
2013-07-31 07:11:00,74.1,72.9,30.03,South,169,0.0,0.0,96,0.00,,,0.00,23.0,meteobridge,2013-07-31 12:11:00,
2013-07-31 07:16:00,74.3,73.0,30.03,South,169,0.0,0.0,96,0.00,,,0.00,32.0,meteobridge,2013-07-31 12:16:00,
2013-07-31 07:21:00,74.7,73.8,30.03,South,169,0.0,0.0,97,0.00,,,0.00,40.0,meteobridge,2013-07-31 12:21:00,
2013-07-31 07:26:00,75.0,74.1,30.03,SE,144,0.0,0.0,97,0.00,,,0.00,42.0,meteobridge,2013-07-31 12:26:00,
2013-07-31 07:31:00,75.0,73.8,30.03,SE,144,0.0,0.0,96,0.00,,,0.00,47.0,meteobridge,2013-07-31 12:31:00,
2013-07-31 07:37:00,75.4,74.5,30.03,SE,144,0.0,0.0,97,0.00,,,0.00,49.0,meteobridge,2013-07-31 12:37:00,
2013-07-31 07:42:00,75.6,74.7,30.03,SE,144,0.0,0.0,97,0.00,,,0.00,56.0,meteobridge,2013-07-31 12:42:00,
2013-07-31 07:47:00,75.7,74.8,30.03,SE,144,0.0,0.0,97,0.00,,,0.00,60.0,meteobridge,2013-07-31 12:47:00,
2013-07-31 07:52:00,76.1,75.2,30.03,SE,144,0.0,0.0,97,0.00,,,0.00,69.0,meteobridge,2013-07-31 12:52:00,
2013-07-31 07:57:00,76.5,75.6,30.03,SE,144,0.0,0.0,97,0.00,,,0.00,153.0,meteobridge,2013-07-31 12:57:00,
2013-07-31 08:02:00,77.2,76.3,30.04,SE,144,0.0,0.0,97,0.00,,,0.00,153.0,meteobridge,2013-07-31 13:02:00,
2013-07-31 08:07:00,77.7,76.8,30.04,SE,144,0.0,0.0,97,0.00,,,0.00,174.0,meteobridge,2013-07-31 13:07:00,
2013-07-31 08:12:00,78.3,77.4,30.04,SE,144,0.0,0.0,97,0.00,,,0.00,192.0,meteobridge,2013-07-31 13:12:00,
2013-07-31 08:17:00,78.8,77.9,30.05,SE,145,0.0,0.9,97,0.00,,,0.00,206.0,meteobridge,2013-07-31 13:17:00,
2013-07-31 08:22:00,79.2,78.3,30.05,West,259,0.0,0.9,97,0.00,,,0.00,229.0,meteobridge,2013-07-31 13:22:00,
2013-07-31 08:28:00,79.2,77.9,30.05,WSW,248,0.0,2.9,96,0.00,,,0.00,250.0,meteobridge,2013-07-31 13:28:00,
2013-07-31 08:33:00,79.5,78.6,30.05,SW,215,2.0,4.0,97,0.00,,,0.00,269.0,meteobridge,2013-07-31 13:33:00,
2013-07-31 08:38:00,79.5,78.3,30.05,SSW,196,2.9,6.9,96,0.00,,,0.00,288.0,meteobridge,2013-07-31 13:38:00,
2013-07-31 08:43:00,79.9,78.6,30.05,SSW,209,2.9,6.0,96,0.00,,,0.00,306.0,meteobridge,2013-07-31 13:43:00,
2013-07-31 08:48:00,80.2,78.6,30.05,SSW,210,4.0,6.0,95,0.00,,,0.00,323.0,meteobridge,2013-07-31 13:48:00,
2013-07-31 08:53:00,80.4,78.6,30.05,SSW,210,2.9,6.9,94,0.00,,,0.00,339.0,meteobridge,2013-07-31 13:53:00,
2013-07-31 08:58:00,81.0,79.0,30.05,SSW,200,2.9,6.9,94,0.00,,,0.00,367.0,meteobridge,2013-07-31 13:58:00,
2013-07-31 09:03:00,81.1,79.0,30.05,SSW,200,4.0,8.1,93,0.00,,,0.00,383.0,meteobridge,2013-07-31 14:03:00,
2013-07-31 09:08:00,81.3,79.2,30.05,SSW,209,2.9,6.0,93,0.00,,,0.00,401.0,meteobridge,2013-07-31 14:08:00,
2013-07-31 09:13:00,81.7,79.2,30.05,SW,235,2.0,6.9,92,0.00,,,0.00,408.0,meteobridge,2013-07-31 14:13:00,
2013-07-31 09:18:00,81.9,78.6,30.05,SW,231,2.9,6.9,90,0.00,,,0.00,193.0,meteobridge,2013-07-31 14:18:00,
2013-07-31 09:23:00,82.2,79.0,30.05,SSW,196,2.9,6.0,90,0.00,,,0.00,464.0,meteobridge,2013-07-31 14:23:00,
2013-07-31 09:28:00,82.8,78.8,30.05,SSW,207,2.9,6.9,88,0.00,,,0.00,494.0,meteobridge,2013-07-31 14:28:00,
2013-07-31 09:33:00,83.1,78.8,30.05,West,262,4.9,6.9,87,0.00,,,0.00,524.0,meteobridge,2013-07-31 14:33:00,
2013-07-31 09:38:00,83.3,78.6,30.05,SW,230,2.0,6.0,86,0.00,,,0.00,524.0,meteobridge,2013-07-31 14:38:00,
2013-07-31 09:43:00,83.7,79.0,30.05,South,187,0.0,2.9,86,0.00,,,0.00,390.0,meteobridge,2013-07-31 14:43:00,
2013-07-31 09:48:00,83.8,78.4,30.05,SSW,198,6.9,6.9,84,0.00,,,0.00,536.0,meteobridge,2013-07-31 14:48:00,
2013-07-31 09:54:00,84.4,79.0,30.05,SSW,198,6.0,6.0,84,0.00,,,0.00,568.0,meteobridge,2013-07-31 14:54:00,
2013-07-31 09:59:00,84.7,78.6,30.05,SSW,211,4.0,6.9,82,0.00,,,0.00,628.0,meteobridge,2013-07-31 14:59:00,
2013-07-31 10:04:00,84.9,78.8,30.05,SW,234,6.0,8.1,82,0.00,,,0.00,631.0,meteobridge,2013-07-31 15:04:00,
2013-07-31 10:09:00,84.9,78.8,30.05,SW,220,0.0,6.0,82,0.00,,,0.00,640.0,meteobridge,2013-07-31 15:09:00,
2013-07-31 10:14:00,84.9,78.1,30.05,SSW,212,2.9,6.9,80,0.00,,,0.00,142.0,meteobridge,2013-07-31 15:14:00,
2013-07-31 10:19:00,84.9,78.1,30.05,WSW,254,0.0,4.0,80,0.00,,,0.00,659.0,meteobridge,2013-07-31 15:19:00,
2013-07-31 10:24:00,85.6,79.5,30.05,WSW,239,0.0,2.0,82,0.00,,,0.00,650.0,meteobridge,2013-07-31 15:24:00,
2013-07-31 10:29:00,86.4,78.6,30.05,SSW,200,4.0,6.0,78,0.00,,,0.00,661.0,meteobridge,2013-07-31 15:29:00,
2013-07-31 10:34:00,86.5,78.1,30.04,SSW,206,6.0,6.9,76,0.00,,,0.00,682.0,meteobridge,2013-07-31 15:34:00,
2013-07-31 10:39:00,86.7,77.9,30.04,SW,223,0.0,4.9,75,0.00,,,0.00,689.0,meteobridge,2013-07-31 15:39:00,
2013-07-31 10:44:00,87.1,77.7,30.04,SSW,209,4.9,6.9,74,0.00,,,0.00,696.0,meteobridge,2013-07-31 15:44:00,
2013-07-31 10:49:00,87.3,76.3,30.05,SW,223,2.0,8.9,70,0.00,,,0.00,717.0,meteobridge,2013-07-31 15:49:00,
2013-07-31 10:54:00,87.3,75.9,30.05,SSW,209,4.9,6.0,69,0.00,,,0.00,731.0,meteobridge,2013-07-31 15:54:00,
2013-07-31 10:59:00,87.4,76.5,30.05,SSW,213,6.9,8.1,70,0.00,,,0.00,742.0,meteobridge,2013-07-31 15:59:00,
2013-07-31 11:04:00,88.0,76.5,30.05,SW,225,4.9,6.0,69,0.00,,,0.00,758.0,meteobridge,2013-07-31 16:04:00,
2013-07-31 11:09:00,88.0,75.6,30.05,SSW,208,2.0,4.0,67,0.00,,,0.00,772.0,meteobridge,2013-07-31 16:09:00,
2013-07-31 11:14:00,88.0,75.2,30.05,SSW,205,2.9,4.9,66,0.00,,,0.00,784.0,meteobridge,2013-07-31 16:14:00,
2013-07-31 11:19:00,88.3,75.9,30.04,SW,214,4.0,6.9,67,0.00,,,0.00,793.0,meteobridge,2013-07-31 16:19:00,
2013-07-31 11:25:00,89.1,76.6,30.04,SSW,202,2.0,4.9,67,0.00,,,0.00,802.0,meteobridge,2013-07-31 16:25:00,
2013-07-31 11:30:00,89.2,77.7,30.04,SW,215,0.9,2.9,69,0.00,,,0.00,809.0,meteobridge,2013-07-31 16:30:00,
2013-07-31 11:35:00,89.2,76.8,30.03,SSW,209,0.0,4.0,67,0.00,,,0.00,812.0,meteobridge,2013-07-31 16:35:00,
2013-07-31 11:40:00,89.4,76.6,30.03,West,261,0.0,4.0,66,0.00,,,0.00,824.0,meteobridge,2013-07-31 16:40:00,
2013-07-31 11:45:00,89.4,76.6,30.03,SSW,205,0.0,0.9,66,0.00,,,0.00,830.0,meteobridge,2013-07-31 16:45:00,
2013-07-31 11:50:00,89.4,77.0,30.03,WSW,246,0.0,0.0,67,0.00,,,0.00,844.0,meteobridge,2013-07-31 16:50:00,
2013-07-31 11:55:00,89.2,77.4,30.03,WSW,238,0.9,2.9,68,0.00,,,0.00,851.0,meteobridge,2013-07-31 16:55:00,
2013-07-31 12:00:00,89.6,77.2,30.02,SW,218,0.0,2.9,67,0.00,,,0.00,858.0,meteobridge,2013-07-31 17:00:00,
2013-07-31 12:05:00,90.0,77.0,30.02,WSW,252,0.0,2.0,66,0.00,,,0.00,872.0,meteobridge,2013-07-31 17:05:00,
2013-07-31 12:10:00,89.8,75.6,30.02,SW,226,0.0,0.0,63,0.00,,,0.00,877.0,meteobridge,2013-07-31 17:10:00,
2013-07-31 12:15:00,90.3,77.0,30.01,SW,233,0.0,0.9,65,0.00,,,0.00,884.0,meteobridge,2013-07-31 17:15:00,
2013-07-31 12:20:00,90.3,76.5,30.01,SW,230,0.0,0.9,64,0.00,,,0.00,891.0,meteobridge,2013-07-31 17:20:00,
2013-07-31 12:25:00,90.1,75.4,30.01,WSW,237,0.9,2.0,62,0.00,,,0.00,896.0,meteobridge,2013-07-31 17:25:00,
2013-07-31 12:30:00,90.1,74.8,30.01,WSW,237,0.0,2.0,61,0.00,,,0.00,907.0,meteobridge,2013-07-31 17:30:00,
2013-07-31 12:35:00,90.9,76.5,30.01,SW,225,0.0,4.0,63,0.00,,,0.00,914.0,meteobridge,2013-07-31 17:35:00,
2013-07-31 12:40:00,90.7,74.3,30.01,SSW,198,0.0,4.0,59,0.00,,,0.00,916.0,meteobridge,2013-07-31 17:40:00,
2013-07-31 12:45:00,91.8,76.8,30.01,SSW,206,2.0,4.0,62,0.00,,,0.00,916.0,meteobridge,2013-07-31 17:45:00,
2013-07-31 12:50:00,91.8,76.5,30.01,SSW,213,0.0,2.9,61,0.00,,,0.00,921.0,meteobridge,2013-07-31 17:50:00,
2013-07-31 12:56:00,91.8,74.8,30.01,West,275,0.0,0.9,58,0.00,,,0.00,923.0,meteobridge,2013-07-31 17:56:00,
2013-07-31 13:01:00,92.3,76.5,30.01,SSW,209,0.0,0.0,60,0.00,,,0.00,926.0,meteobridge,2013-07-31 18:01:00,
2013-07-31 13:06:00,92.1,76.3,30.01,WSW,254,0.0,0.0,60,0.00,,,0.00,925.0,meteobridge,2013-07-31 18:06:00,
2013-07-31 13:11:00,91.8,74.3,30.01,West,262,0.0,0.0,57,0.00,,,0.00,933.0,meteobridge,2013-07-31 18:11:00,
2013-07-31 13:16:00,91.9,73.4,30.00,West,264,0.0,0.0,55,0.00,,,0.00,930.0,meteobridge,2013-07-31 18:16:00,
2013-07-31 13:21:00,91.9,75.6,30.00,WNW,283,0.0,0.0,59,0.00,,,0.00,932.0,meteobridge,2013-07-31 18:21:00,
2013-07-31 13:26:00,91.9,74.5,30.00,WNW,298,0.0,0.0,57,0.00,,,0.00,969.0,meteobridge,2013-07-31 18:26:00,
2013-07-31 13:31:00,91.8,73.8,30.00,WSW,246,0.0,0.0,56,0.00,,,0.00,939.0,meteobridge,2013-07-31 18:31:00,
2013-07-31 13:36:00,92.1,74.7,30.00,SW,229,0.0,0.0,57,0.00,,,0.00,937.0,meteobridge,2013-07-31 18:36:00,
2013-07-31 13:41:00,92.7,73.6,30.00,SE,134,0.0,0.9,54,0.00,,,0.00,928.0,meteobridge,2013-07-31 18:41:00,
2013-07-31 13:47:00,92.5,75.0,29.99,South,185,0.0,0.0,57,0.00,,,0.00,928.0,meteobridge,2013-07-31 18:47:00,
2013-07-31 13:52:00,93.0,76.1,29.99,SSW,197,0.0,4.0,58,0.00,,,0.00,923.0,meteobridge,2013-07-31 18:52:00,
2013-07-31 13:57:00,93.4,77.4,29.99,South,190,0.0,0.0,60,0.00,,,0.00,947.0,meteobridge,2013-07-31 18:57:00,
2013-07-31 14:02:00,92.8,75.4,29.98,SSW,202,0.0,0.0,57,0.00,,,0.00,944.0,meteobridge,2013-07-31 19:02:00,
2013-07-31 14:07:00,93.2,76.6,29.98,SSW,204,4.0,6.0,59,0.00,,,0.00,911.0,meteobridge,2013-07-31 19:07:00,
2013-07-31 14:12:00,93.7,77.7,29.98,SSW,206,2.0,2.0,60,0.00,,,0.00,909.0,meteobridge,2013-07-31 19:12:00,
2013-07-31 14:17:00,93.6,76.1,29.98,SW,215,0.0,2.9,57,0.00,,,0.00,907.0,meteobridge,2013-07-31 19:17:00,
2013-07-31 14:22:00,93.9,74.7,29.98,SW,223,0.0,0.0,54,0.00,,,0.00,909.0,meteobridge,2013-07-31 19:22:00,
2013-07-31 14:27:00,93.7,75.7,29.98,SSW,201,0.0,0.0,56,0.00,,,0.00,904.0,meteobridge,2013-07-31 19:27:00,
2013-07-31 14:32:00,93.6,76.6,29.98,WSW,245,0.0,0.9,58,0.00,,,0.00,891.0,meteobridge,2013-07-31 19:32:00,
2013-07-31 14:38:00,93.7,76.3,29.98,WSW,248,0.0,0.0,57,0.00,,,0.00,889.0,meteobridge,2013-07-31 19:38:00,
2013-07-31 14:43:00,93.7,76.3,29.98,SW,215,0.0,0.0,57,0.00,,,0.00,884.0,meteobridge,2013-07-31 19:43:00,
2013-07-31 14:48:00,93.9,76.8,29.97,SSW,207,4.0,4.0,58,0.00,,,0.00,884.0,meteobridge,2013-07-31 19:48:00,
2013-07-31 14:53:00,93.7,77.7,29.97,South,184,0.0,2.0,60,0.00,,,0.00,875.0,meteobridge,2013-07-31 19:53:00,
2013-07-31 14:58:00,93.9,75.2,29.97,South,188,0.0,0.0,55,0.00,,,0.00,867.0,meteobridge,2013-07-31 19:58:00,
2013-07-31 15:03:00,94.5,75.2,29.97,SSW,201,0.0,0.9,54,0.00,,,0.00,865.0,meteobridge,2013-07-31 20:03:00,
2013-07-31 15:08:00,94.6,75.4,29.97,SW,218,0.0,0.0,54,0.00,,,0.00,853.0,meteobridge,2013-07-31 20:08:00,
2013-07-31 15:13:00,94.6,77.0,29.97,SW,227,0.9,4.9,57,0.00,,,0.00,844.0,meteobridge,2013-07-31 20:13:00,
2013-07-31 15:18:00,94.6,74.8,29.96,SSW,200,2.9,4.0,53,0.00,,,0.00,833.0,meteobridge,2013-07-31 20:18:00,
2013-07-31 15:23:00,94.5,73.6,29.96,SW,215,0.0,0.0,51,0.00,,,0.00,817.0,meteobridge,2013-07-31 20:23:00,
2013-07-31 15:28:00,94.6,74.8,29.96,SW,216,0.0,0.0,53,0.00,,,0.00,814.0,meteobridge,2013-07-31 20:28:00,
2013-07-31 15:34:00,94.8,75.0,29.96,WSW,238,0.0,0.0,53,0.00,,,0.00,795.0,meteobridge,2013-07-31 20:34:00,
2013-07-31 15:39:00,94.8,76.1,29.96,South,190,0.0,0.9,55,0.00,,,0.00,786.0,meteobridge,2013-07-31 20:39:00,
2013-07-31 15:44:00,94.8,77.2,29.96,SW,234,0.0,0.9,57,0.00,,,0.00,780.0,meteobridge,2013-07-31 20:44:00,
2013-07-31 15:49:00,95.0,75.2,29.95,SSW,212,0.0,0.0,53,0.00,,,0.00,768.0,meteobridge,2013-07-31 20:49:00,
2013-07-31 15:54:00,94.8,76.1,29.95,SE,138,6.0,11.0,55,0.00,,,0.00,758.0,meteobridge,2013-07-31 20:54:00,
2013-07-31 15:59:00,94.3,77.2,29.95,SSE,151,2.9,6.9,58,0.00,,,0.00,758.0,meteobridge,2013-07-31 20:59:00,
2013-07-31 16:04:00,94.3,77.2,29.94,SE,135,0.0,6.0,58,0.00,,,0.00,729.0,meteobridge,2013-07-31 21:04:00,
2013-07-31 16:09:00,93.9,77.9,29.94,SE,144,6.0,6.9,60,0.00,,,0.00,738.0,meteobridge,2013-07-31 21:09:00,
2013-07-31 16:14:00,94.5,79.0,29.94,East,83,0.0,11.0,61,0.00,,,0.00,710.0,meteobridge,2013-07-31 21:14:00,
2013-07-31 16:19:00,93.9,77.4,29.94,SE,135,4.0,11.0,59,0.00,,,0.00,689.0,meteobridge,2013-07-31 21:19:00,
2013-07-31 16:24:00,93.9,78.4,29.94,SE,129,2.0,10.1,61,0.00,,,0.00,666.0,meteobridge,2013-07-31 21:24:00,
2013-07-31 16:29:00,94.1,78.1,29.94,SSE,155,10.1,10.1,60,0.00,,,0.00,661.0,meteobridge,2013-07-31 21:29:00,
2013-07-31 16:34:00,93.9,78.4,29.93,SSE,159,11.0,13.0,61,0.00,,,0.00,650.0,meteobridge,2013-07-31 21:34:00,
2013-07-31 16:39:00,93.4,77.9,29.93,SSE,155,8.9,12.1,61,0.00,,,0.00,631.0,meteobridge,2013-07-31 21:39:00,
2013-07-31 16:44:00,93.4,78.8,29.93,SSE,148,8.9,12.1,63,0.00,,,0.00,617.0,meteobridge,2013-07-31 21:44:00,
2013-07-31 16:49:00,93.0,78.6,29.93,SE,128,6.9,11.0,63,0.00,,,0.00,605.0,meteobridge,2013-07-31 21:49:00,
2013-07-31 16:54:00,92.8,78.4,29.93,SSE,150,6.0,12.1,63,0.00,,,0.00,585.0,meteobridge,2013-07-31 21:54:00,
2013-07-31 17:00:00,92.8,77.9,29.93,South,177,11.0,15.0,62,0.00,,,0.00,575.0,meteobridge,2013-07-31 22:00:00,
2013-07-31 17:05:00,92.7,78.3,29.93,SE,126,8.1,14.1,63,0.00,,,0.00,552.0,meteobridge,2013-07-31 22:05:00,
2013-07-31 17:10:00,92.5,78.1,29.93,SSE,161,6.0,14.1,63,0.00,,,0.00,541.0,meteobridge,2013-07-31 22:10:00,
2013-07-31 17:15:00,92.3,78.3,29.93,SSE,159,6.9,13.0,64,0.00,,,0.00,527.0,meteobridge,2013-07-31 22:15:00,
2013-07-31 17:20:00,92.3,78.3,29.92,SE,146,13.0,13.0,64,0.00,,,0.00,508.0,meteobridge,2013-07-31 22:20:00,
2013-07-31 17:25:00,91.9,78.1,29.92,SSE,147,6.9,12.1,64,0.00,,,0.00,494.0,meteobridge,2013-07-31 22:25:00,
2013-07-31 17:30:00,91.8,77.4,29.92,South,174,11.0,14.1,63,0.00,,,0.00,452.0,meteobridge,2013-07-31 22:30:00,
2013-07-31 17:35:00,91.9,77.5,29.92,SE,145,6.9,13.0,63,0.00,,,0.00,454.0,meteobridge,2013-07-31 22:35:00,
2013-07-31 17:40:00,91.8,76.8,29.92,South,170,11.0,11.0,62,0.00,,,0.00,446.0,meteobridge,2013-07-31 22:40:00,
2013-07-31 17:45:00,91.8,77.9,29.92,South,171,8.1,11.0,64,0.00,,,0.00,429.0,meteobridge,2013-07-31 22:45:00,
2013-07-31 17:50:00,91.8,77.4,29.92,SSE,161,10.1,12.1,63,0.00,,,0.00,410.0,meteobridge,2013-07-31 22:50:00,
2013-07-31 17:55:00,91.8,78.3,29.92,SSE,163,8.9,10.1,65,0.00,,,0.00,396.0,meteobridge,2013-07-31 22:55:00,
2013-07-31 18:00:00,91.6,77.2,29.92,SE,142,8.9,12.1,63,0.00,,,0.00,380.0,meteobridge,2013-07-31 23:00:00,
2013-07-31 18:05:00,91.2,76.8,29.92,SSE,168,6.0,13.0,63,0.00,,,0.00,366.0,meteobridge,2013-07-31 23:05:00,
2013-07-31 18:10:00,91.2,76.8,29.92,South,169,8.9,11.0,63,0.00,,,0.00,352.0,meteobridge,2013-07-31 23:10:00,
2013-07-31 18:15:00,91.0,77.2,29.92,SSE,163,6.9,8.9,64,0.00,,,0.00,338.0,meteobridge,2013-07-31 23:15:00,
2013-07-31 18:20:00,91.0,76.3,29.92,South,174,10.1,13.0,62,0.00,,,0.00,322.0,meteobridge,2013-07-31 23:20:00,
2013-07-31 18:25:00,90.9,76.1,29.92,SSE,167,8.9,10.1,62,0.00,,,0.00,304.0,meteobridge,2013-07-31 23:25:00,
2013-07-31 18:30:00,90.7,75.9,29.91,South,174,8.1,11.0,62,0.00,,,0.00,287.0,meteobridge,2013-07-31 23:30:00,
2013-07-31 18:35:00,90.7,75.4,29.91,South,175,6.9,8.9,61,0.00,,,0.00,267.0,meteobridge,2013-07-31 23:35:00,
2013-07-31 18:40:00,90.3,75.0,29.91,SSE,157,8.9,11.0,61,0.00,,,0.00,250.0,meteobridge,2013-07-31 23:40:00,
2013-07-31 18:45:00,90.1,74.8,29.91,South,191,8.9,10.1,61,0.00,,,0.00,232.0,meteobridge,2013-07-31 23:45:00,
2013-07-31 18:50:00,89.8,74.1,29.91,South,185,8.1,12.1,60,0.00,,,0.00,214.0,meteobridge,2013-07-31 23:50:00,
2013-07-31 18:55:00,89.4,73.8,29.91,SSE,164,11.0,12.1,60,0.00,,,0.00,195.0,meteobridge,2013-07-31 23:55:00,
2013-07-31 19:00:00,89.2,73.9,29.91,SSE,158,6.9,10.1,61,0.00,,,0.00,174.0,meteobridge,2013-08-01 00:00:00,
2013-07-31 19:05:00,89.1,74.8,29.91,South,178,6.0,11.0,63,0.00,,,0.00,155.0,meteobridge,2013-08-01 00:05:00,
2013-07-31 19:10:00,88.9,75.2,29.91,SE,146,6.9,8.1,64,0.00,,,0.00,135.0,meteobridge,2013-08-01 00:10:00,
2013-07-31 19:16:00,88.5,74.8,29.91,SSE,161,8.1,8.1,64,0.00,,,0.00,116.0,meteobridge,2013-08-01 00:16:00,
2013-07-31 19:21:00,88.3,75.6,29.91,South,176,6.9,11.0,66,0.00,,,0.00,98.0,meteobridge,2013-08-01 00:21:00,
2013-07-31 19:26:00,88.0,76.5,29.91,South,181,4.9,8.9,69,0.00,,,0.00,83.0,meteobridge,2013-08-01 00:26:00,
2013-07-31 19:31:00,87.4,76.5,29.91,SSE,165,2.9,8.9,70,0.00,,,0.00,67.0,meteobridge,2013-08-01 00:31:00,
2013-07-31 19:36:00,86.7,75.7,29.91,South,175,6.9,10.1,70,0.00,,,0.00,54.0,meteobridge,2013-08-01 00:36:00,
2013-07-31 19:41:00,86.4,75.0,29.91,SSE,156,6.0,13.0,69,0.00,,,0.00,42.0,meteobridge,2013-08-01 00:41:00,
2013-07-31 19:46:00,85.8,74.8,29.91,South,181,6.0,11.0,70,0.00,,,0.00,33.0,meteobridge,2013-08-01 00:46:00,
2013-07-31 19:51:00,85.5,74.5,29.91,South,190,6.0,11.0,70,0.00,,,0.00,25.0,meteobridge,2013-08-01 00:51:00,
2013-07-31 19:56:00,85.3,74.3,29.91,SSE,163,6.0,10.1,70,0.00,,,0.00,19.0,meteobridge,2013-08-01 00:56:00,
2013-07-31 20:01:00,84.7,74.3,29.92,South,173,8.1,8.9,71,0.00,,,0.00,16.0,meteobridge,2013-08-01 01:01:00,
2013-07-31 20:06:00,84.6,74.5,29.92,South,173,6.9,6.9,72,0.00,,,0.00,12.0,meteobridge,2013-08-01 01:06:00,
2013-07-31 20:11:00,84.2,74.7,29.92,SSW,192,4.9,8.1,73,0.00,,,0.00,7.0,meteobridge,2013-08-01 01:11:00,
2013-07-31 20:16:00,83.8,75.0,29.92,South,187,4.9,8.1,75,0.00,,,0.00,5.0,meteobridge,2013-08-01 01:16:00,
2013-07-31 20:21:00,83.3,75.0,29.92,South,186,2.0,4.9,76,0.00,,,0.00,0.0,meteobridge,2013-08-01 01:21:00,
2013-07-31 20:26:00,82.9,75.4,29.92,SSW,194,2.0,6.9,78,0.00,,,0.00,0.0,meteobridge,2013-08-01 01:26:00,
2013-07-31 20:31:00,82.6,75.4,29.92,South,190,8.1,8.9,79,0.00,,,0.00,0.0,meteobridge,2013-08-01 01:31:00,
2013-07-31 20:36:00,82.2,75.4,29.92,South,180,4.0,6.0,80,0.00,,,0.00,0.0,meteobridge,2013-08-01 01:36:00,
2013-07-31 20:41:00,82.0,75.2,29.92,SSE,168,2.9,4.9,80,0.00,,,0.00,0.0,meteobridge,2013-08-01 01:41:00,
2013-07-31 20:46:00,81.9,75.4,29.92,South,176,2.9,6.0,81,0.00,,,0.00,0.0,meteobridge,2013-08-01 01:46:00,
2013-07-31 20:52:00,81.5,75.0,29.92,South,178,0.9,4.9,81,0.00,,,0.00,0.0,meteobridge,2013-08-01 01:52:00,
2013-07-31 20:57:00,81.1,75.2,29.92,SSE,155,2.9,4.9,82,0.00,,,0.00,0.0,meteobridge,2013-08-01 01:57:00,
2013-07-31 21:02:00,81.0,75.4,29.92,SSE,162,2.0,4.0,83,0.00,,,0.00,0.0,meteobridge,2013-08-01 02:02:00,
2013-07-31 21:07:00,80.8,75.6,29.92,South,179,4.9,6.0,84,0.00,,,0.00,0.0,meteobridge,2013-08-01 02:07:00,
2013-07-31 21:12:00,80.6,75.4,29.92,South,171,2.9,4.9,84,0.00,,,0.00,0.0,meteobridge,2013-08-01 02:12:00,
2013-07-31 21:17:00,80.6,75.4,29.93,SSE,163,2.9,4.9,84,0.00,,,0.00,0.0,meteobridge,2013-08-01 02:17:00,
2013-07-31 21:22:00,80.4,75.6,29.93,South,178,4.9,4.9,85,0.00,,,0.00,0.0,meteobridge,2013-08-01 02:22:00,
2013-07-31 21:27:00,80.2,75.4,29.93,South,174,2.9,4.0,85,0.00,,,0.00,0.0,meteobridge,2013-08-01 02:27:00,
2013-07-31 21:32:00,80.1,75.6,29.93,South,174,2.9,4.0,86,0.00,,,0.00,0.0,meteobridge,2013-08-01 02:32:00,
2013-07-31 21:37:00,79.9,75.7,29.93,SSE,167,2.9,4.9,87,0.00,,,0.00,0.0,meteobridge,2013-08-01 02:37:00,
2013-07-31 21:42:00,80.1,76.1,29.93,South,173,6.0,6.9,88,0.00,,,0.00,0.0,meteobridge,2013-08-01 02:42:00,
2013-07-31 21:47:00,80.2,76.3,29.93,South,171,2.0,6.9,88,0.00,,,0.00,0.0,meteobridge,2013-08-01 02:47:00,
2013-07-31 21:52:00,80.1,76.1,29.93,South,176,2.9,6.0,88,0.00,,,0.00,0.0,meteobridge,2013-08-01 02:52:00,
2013-07-31 21:57:00,79.9,75.9,29.93,South,173,2.0,4.9,88,0.00,,,0.00,0.0,meteobridge,2013-08-01 02:57:00,
2013-07-31 22:02:00,79.7,76.1,29.94,South,179,2.0,4.9,89,0.00,,,0.00,0.0,meteobridge,2013-08-01 03:02:00,
2013-07-31 22:07:00,79.5,75.9,29.94,South,188,2.9,4.9,89,0.00,,,0.00,0.0,meteobridge,2013-08-01 03:07:00,
2013-07-31 22:13:00,79.3,75.7,29.94,South,171,0.0,2.0,89,0.00,,,0.00,0.0,meteobridge,2013-08-01 03:13:00,
2013-07-31 22:18:00,79.3,75.7,29.94,South,178,2.9,4.0,89,0.00,,,0.00,0.0,meteobridge,2013-08-01 03:18:00,
2013-07-31 22:23:00,79.2,75.9,29.94,South,170,4.0,6.0,90,0.00,,,0.00,0.0,meteobridge,2013-08-01 03:23:00,
2013-07-31 22:28:00,79.2,75.9,29.94,South,175,2.9,4.0,90,0.00,,,0.00,0.0,meteobridge,2013-08-01 03:28:00,
2013-07-31 22:33:00,79.2,75.9,29.94,South,175,2.9,6.0,90,0.00,,,0.00,0.0,meteobridge,2013-08-01 03:33:00,
2013-07-31 22:38:00,79.2,75.9,29.94,South,173,2.9,4.0,90,0.00,,,0.00,0.0,meteobridge,2013-08-01 03:38:00,
2013-07-31 22:43:00,79.2,75.9,29.94,South,175,4.9,6.0,90,0.00,,,0.00,0.0,meteobridge,2013-08-01 03:43:00,
2013-07-31 22:48:00,79.2,75.9,29.94,South,175,4.9,6.0,90,0.00,,,0.00,0.0,meteobridge,2013-08-01 03:48:00,
2013-07-31 22:54:00,79.2,75.9,29.94,South,180,4.0,4.0,90,0.00,,,0.00,0.0,meteobridge,2013-08-01 03:54:00,
2013-07-31 22:59:00,79.2,76.3,29.94,South,182,4.0,4.0,91,0.00,,,0.00,0.0,meteobridge,2013-08-01 03:59:00,
2013-07-31 23:01:00,79.2,76.3,29.94,South,169,2.9,4.9,91,0.00,,,0.00,0.0,meteobridge,2013-08-01 04:01:00,
2013-07-31 23:02:00,79.2,75.9,29.94,South,170,2.9,4.9,90,0.00,,,0.00,0.0,meteobridge,2013-08-01 04:02:00,
2013-07-31 23:07:00,79.2,76.3,29.94,South,176,4.0,6.0,91,0.00,,,0.00,0.0,meteobridge,2013-08-01 04:07:00,
2013-07-31 23:12:00,79.2,76.3,29.94,South,176,0.9,4.0,91,0.00,,,0.00,0.0,meteobridge,2013-08-01 04:12:00,
2013-07-31 23:17:00,79.2,76.3,29.95,South,175,2.9,4.0,91,0.00,,,0.00,0.0,meteobridge,2013-08-01 04:17:00,
2013-07-31 23:22:00,79.0,76.1,29.95,South,176,0.0,2.9,91,0.00,,,0.00,0.0,meteobridge,2013-08-01 04:22:00,
2013-07-31 23:27:00,79.0,76.1,29.95,South,176,0.0,2.9,91,0.00,,,0.00,0.0,meteobridge,2013-08-01 04:27:00,
2013-07-31 23:33:00,78.8,75.9,29.95,South,175,0.0,0.9,91,0.00,,,0.00,0.0,meteobridge,2013-08-01 04:33:00,
2013-07-31 23:38:00,78.6,75.7,29.95,South,175,0.0,0.9,91,0.00,,,0.00,0.0,meteobridge,2013-08-01 04:38:00,
2013-07-31 23:43:00,78.6,76.1,29.95,South,171,2.0,2.9,92,0.00,,,0.00,0.0,meteobridge,2013-08-01 04:43:00,
2013-07-31 23:48:00,78.6,76.1,29.96,South,171,0.0,2.0,92,0.00,,,0.00,0.0,meteobridge,2013-08-01 04:48:00,
2013-07-31 23:54:00,78.4,75.9,29.96,South,171,0.0,0.0,92,0.00,,,0.00,0.0,meteobridge,2013-08-01 04:54:00,
2013-07-31 23:59:00,78.4,75.9,29.96,SSE,153,0.0,2.0,92,0.00,,,0.00,0.0,meteobridge,2013-08-01 04:59:00,